{"data":{"norad_id":60060,"intl_designator":"2024-113B","name":"STARLINK-11176 [DTC]","alt_names":[],"object_type":"PAYLOAD","status":"ACTIVE","operator":null,"country":"US","launch_date":"2024-06-19","launch_site_code":"AFWTR","launch_vehicle":null,"mission":null,"orbit_class":"UNKNOWN","rcs_meters":null,"size_class":null,"mass_kg":null,"dimensions":null,"purposes":["comms"],"wikipedia_slug":null,"has_3d_model":false,"image_url":null,"decayed_at":null,"tle_current":{"epoch":"2026-05-24T19:06:59.634720Z","epoch_age_seconds":85871,"freshness":"FRESH","line1":"1 60060U 24113B   26144.79652355 -.00006661  00000+0 -50092-4 0  9992","line2":"2 60060  53.1588 176.1093 0000902  76.9384 283.1735 15.69744565111519","mean_motion":15.69744565,"eccentricity":9.02e-5,"inclination_deg":53.1588,"raan_deg":176.1093,"arg_perigee_deg":76.9384,"mean_anomaly_deg":283.1735,"bstar":-5.0092e-5,"rev_number":11151,"period_min":91.734670220056,"perigee_km":359.02009404695,"apogee_km":360.23558682416,"semimajor_km":6737.7648404356,"source":"CELESTRAK","updated_at":"2026-05-25T13:38:19.156542Z"}}}